Regional Weather Roundup
Issued by NWS Bismarck, ND

Home | Current Version | Previous Version | Text Only | Print | Product List | Glossary On
Versions: 1 2 3 4 5 6 7 8 9 10 11 12 13 14 15 16 17 18 19 20 21 22 23 24 25 26 27 28 29 30 31 32 33 34 35 36 37 38 39 40 41 42 43 44 45 46 47 48 49 50
000
ASUS43 KBIS 300002
RWRBIS

NWR BROADCAST TEXT
NATIONAL WEATHER SERVICE BISMARCK ND
700 PM CDT SAT AUG 29 2015

NOTE: "FAIR" INDICATES FEW OR NO CLOUDS BELOW 12,000 FEET WITH NO
SIGNIFICANT WEATHER AND/OR OBSTRUCTIONS TO VISIBILITY.


CITY           SKY/WX    TMP DP  RH WIND       PRES   REMARKS
WILLISTON      MOSUNNY   92  47  21 CALM      29.78F HAZE
MINOT          MOSUNNY   86  53  32 S6        29.78F HAZE
MINOT AFB      MOSUNNY   89  54  29 S6        29.76F
BISMARCK       MOSUNNY   86  62  44 SE8       29.83F HAZE
DICKINSON      MOSUNNY   92  42  17 SW8       29.82F
GARRISON         N/A     84  57  39 S7        29.81F
HETTINGER ARPT SUNNY     93  44  18 S9        29.88F
JAMESTOWN      MOSUNNY   81  72  74 S7        29.85F
HAZEN          FAIR      86  55  35 SE10      29.81S
STANLEY        FAIR      86  63  45 CALM      29.82F
$$

CITY           SKY/WX    TMP DP  RH WIND       PRES   REMARKS
GRAND FORKS    PTSUNNY   78  69  73 S12       29.82F
GRAND FORKS AF PTSUNNY   78  69  72 SW8       29.83S
DEVILS LAKE    MOSUNNY   81  64  57 S10       29.81F
FARGO          PTSUNNY   81  67  62 S10       29.86F
CAVALIER       FAIR      81  72  74 S10       29.78F
GRAFTON        FAIR      79  72  78 S12       29.82S
GWINNER        FAIR      79  73  83 S7        29.89F
LANGDON        FAIR      81  64  57 S13       29.82F
$$

CITY           SKY/WX    TMP DP  RH WIND       PRES   REMARKS
ABERDEEN       SUNNY     81  73  76 S10       29.89F
MOBRIDGE       SUNNY     86  66  51 SE8       29.85F
RAPID CITY     SUNNY     86  55  34 SE9       29.93F
GLASGOW        HAZE      90  41  18 E15       29.73F VSB 1/2
SIDNEY         PTSUNNY   90  57  33 CALM      29.77F
WOLF POINT     HAZE      92  47  21 E6        29.75F VSB 3/4
GLENDIVE       CLOUDY    95  48  20 SW3       29.80F HX  91
MILES CITY     PTSUNNY   98  39  13 SE5       29.78F HX  93
BAKER          PTSUNNY   92  47  21 S10       29.86F
$$

CITY           SKY/WX    TMP DP  RH WIND       PRES   REMARKS
BILLINGS       CLOUDY    87  44  22 SW8       29.86F
GREAT FALLS    LGT RAIN  74  54  49 W12       29.74R
$$




USA.gov is the U.S. government's official web portal to all federal, state and local government web resources and services.